Change the Weather History Date:

Wednesday, November 28, 2012

  Actual Average Record
Temperature  
Mean Temperature 28 °F -  
Max Temperature 33 °F 41 °F 64 °F (2001)
Min Temperature 24 °F 28 °F 10 °F (1996)
Degree Days  
Heating Degree Days 36    
Moisture  
Dew Point 21 °F    
Average Humidity 76    
Maximum Humidity 100    
Minimum Humidity 52    
Precipitation  
Precipitation 0.00 in - - ()
Sea Level Pressure  
Sea Level Pressure 30.23 in    
Wind  
Wind Speed 13 mph (WNW)    
Max Wind Speed 23 mph    
Max Gust Speed 28 mph    
Visibility 10 miles    
Events      
Averages and records for this station are not official NWS values.
T = Trace of Precipitation, MM = Missing Value Source: NWS Daily Summary

Daily Weather History Graph

Daily Weather History Graph

Search for Another Location

Airport or City:

Trip Planner

Search our weather history database for the weather conditions in past years. The results will help you decide how hot, cold, wet, or windy it might be!

Date:

Astronomy

Nov. 28, 2012 Rise Set
Actual Time 7:13 AM EST 5:00 PM EST
Civil Twilight 6:45 AM EST 5:29 PM EST
Nautical Twilight 6:12 AM EST 6:02 PM EST
Astronomical Twilight 5:40 AM EST 6:33 PM EST
Moon 5:14 PM EST (11/28) 7:10 AM EST (11/28)
Length of Visible Light 10h 44m
Length of Day
9h 46m
Full, 100% of the Moon is Illuminated
Nov 28
Full
Dec 6
Last Quarter
Dec 13
New
Dec 20
First Quarter
Dec 28
Full

Hourly Weather History & Observations

Time (EST) Temp. Windchill Dew Point Humidity Pressure Visibility Wind Dir Wind Speed Gust Speed Precip Events Conditions
12:15 AM 28.4 °F 18.5 °F 28.4 °F 100% 30.17 in 1.2 mi West 11.5 mph - N/A   Overcast
12:55 AM 28.4 °F 19.1 °F 28.4 °F 100% 30.17 in 10.0 mi West 10.4 mph - N/A   Overcast
1:35 AM 28.4 °F 19.7 °F 28.4 °F 100% 30.17 in 10.0 mi West 9.2 mph - N/A   Overcast
1:55 AM 28.4 °F 19.1 °F 26.6 °F 93% 30.17 in 10.0 mi WNW 10.4 mph - N/A   Overcast
2:15 AM 28.4 °F 20.4 °F 26.6 °F 93% 30.17 in 10.0 mi WNW 8.1 mph - N/A   Overcast
2:35 AM 28.4 °F 20.4 °F 24.8 °F 86% 30.16 in 10.0 mi WNW 8.1 mph 16.1 mph N/A   Overcast
2:55 AM 28.4 °F 19.7 °F 26.6 °F 93% 30.16 in 10.0 mi West 9.2 mph - N/A   Overcast
3:15 AM 26.6 °F 16.8 °F 24.8 °F 93% 30.16 in 10.0 mi WNW 10.4 mph - N/A   Overcast
3:35 AM 26.6 °F 16.8 °F 24.8 °F 93% 30.16 in 10.0 mi WNW 10.4 mph - N/A   Overcast
3:55 AM 26.6 °F 16.8 °F 24.8 °F 93% 30.16 in 10.0 mi WNW 10.4 mph - N/A   Overcast
4:15 AM 26.6 °F 16.2 °F 24.8 °F 93% 30.16 in 10.0 mi WNW 11.5 mph - N/A   Overcast
4:35 AM 26.6 °F 14.7 °F 24.8 °F 93% 30.16 in 10.0 mi WNW 15.0 mph 19.6 mph N/A   Overcast
4:55 AM 26.6 °F 14.7 °F 24.8 °F 93% 30.17 in 10.0 mi WNW 15.0 mph - N/A   Overcast
5:15 AM 26.6 °F 15.7 °F 23.0 °F 86% 30.18 in 10.0 mi West 12.7 mph - N/A   Overcast
5:35 AM 26.6 °F 16.2 °F 23.0 °F 86% 30.18 in 10.0 mi WNW 11.5 mph 21.9 mph N/A   Overcast
5:55 AM 26.6 °F 16.2 °F 21.2 °F 80% 30.18 in 10.0 mi WNW 11.5 mph 16.1 mph N/A   Overcast
6:15 AM 26.6 °F 15.7 °F 21.2 °F 80% 30.18 in 10.0 mi WNW 12.7 mph 18.4 mph N/A   Overcast
6:35 AM 26.6 °F 15.2 °F 21.2 °F 80% 30.19 in 10.0 mi West 13.8 mph 20.7 mph N/A   Overcast
6:55 AM 24.8 °F 11.1 °F 21.2 °F 86% 30.19 in 10.0 mi WNW 18.4 mph 24.2 mph N/A   Overcast
7:15 AM 24.8 °F 12.4 °F 21.2 °F 86% 30.20 in 10.0 mi West 15.0 mph 19.6 mph N/A   Overcast
7:35 AM 24.8 °F 12.9 °F 21.2 °F 86% 30.20 in 10.0 mi WNW 13.8 mph 19.6 mph N/A   Mostly Cloudy
7:55 AM 26.6 °F 13.4 °F 21.2 °F 80% 30.21 in 10.0 mi WNW 18.4 mph 23.0 mph N/A   Mostly Cloudy
8:15 AM 26.6 °F 13.8 °F 21.2 °F 80% 30.22 in 10.0 mi WNW 17.3 mph 25.3 mph N/A   Mostly Cloudy
8:35 AM 26.6 °F 13.8 °F 21.2 °F 80% 30.22 in 10.0 mi WNW 17.3 mph 21.9 mph N/A   Scattered Clouds
8:55 AM 26.6 °F 14.7 °F 21.2 °F 80% 30.23 in 10.0 mi WNW 15.0 mph 20.7 mph N/A   Scattered Clouds
9:15 AM 28.4 °F 17.5 °F 23.0 °F 80% 30.23 in 10.0 mi West 13.8 mph - N/A   Mostly Cloudy
9:35 AM 28.4 °F 18.5 °F 21.2 °F 74% 30.23 in 10.0 mi West 11.5 mph 18.4 mph N/A   Mostly Cloudy
9:55 AM 28.4 °F 17.5 °F 21.2 °F 74% 30.24 in 10.0 mi West 13.8 mph - N/A   Scattered Clouds
10:15 AM 28.4 °F 17.0 °F 21.2 °F 74% 30.23 in 10.0 mi West 15.0 mph 19.6 mph N/A   Scattered Clouds
10:35 AM 28.4 °F 16.6 °F 19.4 °F 69% 30.24 in 10.0 mi WNW 16.1 mph 21.9 mph N/A   Clear
10:55 AM 30.2 °F 19.8 °F 19.4 °F 64% 30.24 in 10.0 mi West 13.8 mph 24.2 mph N/A   Clear
11:15 AM 30.2 °F 20.8 °F 19.4 °F 64% 30.23 in 10.0 mi West 11.5 mph 18.4 mph N/A   Clear
11:55 AM 30.2 °F 18.5 °F 19.4 °F 64% 30.23 in 10.0 mi West 17.3 mph 23.0 mph N/A   Clear
12:15 PM 32.0 °F 20.5 °F 19.4 °F 60% 30.22 in 10.0 mi West 18.4 mph 21.9 mph N/A   Clear
12:35 PM 32.0 °F 20.8 °F 19.4 °F 60% 30.22 in 10.0 mi WNW 17.3 mph 26.5 mph N/A   Clear
12:55 PM 32.0 °F 19.2 °F 19.4 °F 60% 30.21 in 10.0 mi WNW 23.0 mph 27.6 mph N/A   Clear
1:15 PM 32.0 °F 22.1 °F 17.6 °F 55% 30.21 in 10.0 mi WNW 13.8 mph 24.2 mph N/A   Clear
1:35 PM 33.8 °F 23.5 °F 19.4 °F 56% 30.21 in 10.0 mi WNW 16.1 mph 25.3 mph N/A   Clear
1:55 PM 33.8 °F 23.9 °F 17.6 °F 52% 30.21 in 10.0 mi WNW 15.0 mph 20.7 mph N/A   Clear
2:15 PM 33.8 °F 23.2 °F 17.6 °F 52% 30.20 in 10.0 mi West 17.3 mph 23.0 mph N/A   Clear
2:35 PM 33.8 °F 22.8 °F 17.6 °F 52% 30.20 in 10.0 mi West 18.4 mph 26.5 mph N/A   Clear
2:55 PM 33.8 °F 23.9 °F 17.6 °F 52% 30.20 in 10.0 mi WNW 15.0 mph 23.0 mph N/A   Clear
3:15 PM 33.8 °F 23.9 °F 17.6 °F 52% 30.20 in 10.0 mi West 15.0 mph 23.0 mph N/A   Clear
3:35 PM 33.8 °F 23.9 °F 17.6 °F 52% 30.22 in 10.0 mi West 15.0 mph 20.7 mph N/A   Clear
3:55 PM 33.8 °F 23.9 °F 17.6 °F 52% 30.22 in 10.0 mi West 15.0 mph 19.6 mph N/A   Clear
4:15 PM 32.0 °F 22.5 °F 17.6 °F 55% 30.23 in 10.0 mi WNW 12.7 mph 24.2 mph N/A   Clear
4:35 PM 30.2 °F 20.8 °F 17.6 °F 60% 30.24 in 10.0 mi WNW 11.5 mph 20.7 mph N/A   Clear
4:55 PM 30.2 °F 18.5 °F 17.6 °F 60% 30.24 in 10.0 mi WNW 17.3 mph 21.9 mph N/A   Clear
5:15 PM 28.4 °F 17.5 °F 17.6 °F 64% 30.24 in 10.0 mi West 13.8 mph 21.9 mph N/A   Clear
5:35 PM 28.4 °F 18.0 °F 17.6 °F 64% 30.25 in 10.0 mi WNW 12.7 mph 19.6 mph N/A   Clear
5:55 PM 28.4 °F 19.7 °F 17.6 °F 64% 30.25 in 10.0 mi WNW 9.2 mph 18.4 mph N/A   Clear
6:15 PM 28.4 °F 18.0 °F 19.4 °F 69% 30.26 in 10.0 mi West 12.7 mph - N/A   Clear
6:35 PM 26.6 °F 17.5 °F 19.4 °F 74% 30.26 in 10.0 mi West 9.2 mph 16.1 mph N/A   Clear
6:55 PM 26.6 °F 14.7 °F 19.4 °F 74% 30.27 in 10.0 mi WNW 15.0 mph 19.6 mph N/A   Clear
7:15 PM 26.6 °F 16.2 °F 19.4 °F 74% 30.27 in 10.0 mi West 11.5 mph 17.3 mph N/A   Clear
7:35 PM 26.6 °F 14.7 °F 19.4 °F 74% 30.28 in 10.0 mi West 15.0 mph - N/A   Clear
7:55 PM 24.8 °F 12.9 °F 19.4 °F 80% 30.29 in 10.0 mi West 13.8 mph - N/A   Clear
8:15 PM 24.8 °F 11.5 °F 19.4 °F 80% 30.30 in 10.0 mi West 17.3 mph - N/A   Clear
8:35 PM 26.6 °F 13.1 °F 21.2 °F 80% 30.29 in 10.0 mi WNW 19.6 mph - N/A   Clear
8:55 PM 24.8 °F 10.7 °F 21.2 °F 86% 30.30 in 10.0 mi West 19.6 mph - N/A   Clear
9:15 PM 24.8 °F 10.3 °F 21.2 °F 86% 30.29 in 10.0 mi West 20.7 mph - N/A   Clear
9:35 PM 24.8 °F 11.1 °F 21.2 °F 86% 30.31 in 10.0 mi West 18.4 mph - N/A   Clear
9:55 PM 24.8 °F 10.3 °F 21.2 °F 86% 30.30 in 10.0 mi West 20.7 mph 24.2 mph N/A   Clear
10:15 PM 24.8 °F 10.3 °F 21.2 °F 86% 30.30 in 10.0 mi West 20.7 mph - N/A   Clear
10:35 PM 24.8 °F 11.1 °F 21.2 °F 86% 30.31 in 10.0 mi West 18.4 mph 23.0 mph N/A   Clear
10:55 PM 24.8 °F 10.7 °F 21.2 °F 86% 30.31 in 10.0 mi West 19.6 mph - N/A   Clear
11:15 PM 24.8 °F 11.1 °F 21.2 °F 86% 30.31 in 10.0 mi West 18.4 mph - N/A   Clear
11:35 PM 24.8 °F 11.9 °F 21.2 °F 86% 30.30 in 10.0 mi West 16.1 mph - N/A   Clear
11:55 PM 24.8 °F 11.5 °F 21.2 °F 86% 30.30 in 10.0 mi West 17.3 mph - N/A   Clear